Location: Maccacari
(45.1333°N, 11.1333°E)
Time: 02:14:28
(UTC+00:00)

Vanguard 2 - Pass Details

Date: 23 January 2021
Orbit: 552 x 2938 km, 32.9° (Epoch: 05 March)

Event Time Altitude Azimuth Distance (km) Brightness Sun altitude
Rises 16:25:17 0° 227° (SW) 2,710 12.0 -3.2°
Reaches altitude 10° 16:28:06 10° 203° (SSW) 1,882 10.3 -3.6°
Maximum altitude 16:30:40 16° 164° (SSE) 1,651 9.4 -4.1°
Drops below altitude 10° 16:33:37 10° 127° (SE) 2,212 9.6 -4.5°
Sets 16:37:22 0° 106° (ESE) 3,483 10.4 -5.1°
